Time,TemperatureF,DewpointF,PressureIn,WindDirection,WindDirectionDegrees,WindSpeedMPH,WindSpeedGustMPH,Humidity,HourlyPrecipIn,Conditions,Clouds,dailyrainin,SolarRadiationWatts/m^2,SoftwareType,DateUTC
2013-01-27 00:22:00,54.0,52.0,29.98,West,281,6.0,13.0,92,0.00,,,0.04,0.000000,,2013-01-27 08:22:00,
2013-01-27 00:31:00,54.0,52.0,29.98,West,281,6.0,13.0,92,0.00,,,0.04,0.000000,,2013-01-27 08:31:00,
2013-01-27 00:41:00,54.0,52.0,29.98,West,281,6.0,13.0,92,0.00,,,0.04,0.000000,,2013-01-27 08:41:00,
2013-01-27 00:52:00,54.0,52.0,29.98,West,281,6.0,13.0,92,0.00,,,0.04,0.000000,,2013-01-27 08:52:00,
2013-01-27 01:21:00,54.0,52.0,-100.00,NNW,331,6.0,11.0,94,0.00,,,0.02,0.000000,,2013-01-27 09:21:00,
2013-01-27 01:32:00,54.0,52.0,-100.00,NNW,331,6.0,11.0,94,0.00,,,0.02,0.000000,,2013-01-27 09:32:00,
2013-01-27 01:41:00,54.0,52.0,-100.00,NNW,331,6.0,11.0,94,0.00,,,0.02,0.000000,,2013-01-27 09:41:00,
2013-01-27 01:51:00,54.0,52.0,-100.00,NNW,331,6.0,11.0,94,0.00,,,0.02,0.000000,,2013-01-27 09:51:00,
2013-01-27 02:21:00,53.0,51.0,29.98,WNW,285,6.0,12.0,93,0.00,,,0.01,0.000000,,2013-01-27 10:21:00,
2013-01-27 02:31:00,53.0,51.0,29.98,WNW,285,6.0,12.0,93,0.00,,,0.01,0.000000,,2013-01-27 10:31:00,
2013-01-27 02:41:00,53.0,51.0,29.98,WNW,285,6.0,12.0,93,0.00,,,0.01,0.000000,,2013-01-27 10:41:00,
2013-01-27 02:51:00,53.0,51.0,29.98,WNW,285,6.0,12.0,93,0.00,,,0.01,0.000000,,2013-01-27 10:51:00,
2013-01-27 03:21:00,53.0,51.0,29.97,NNE,24,6.0,13.0,92,0.00,,,0.00,0.000000,,2013-01-27 11:21:00,
2013-01-27 03:32:00,53.0,51.0,29.97,NNE,24,6.0,13.0,92,0.00,,,0.00,0.000000,,2013-01-27 11:32:00,
2013-01-27 03:42:00,53.0,51.0,29.97,NNE,24,6.0,13.0,92,0.00,,,0.00,0.000000,,2013-01-27 11:42:00,
2013-01-27 03:52:00,53.0,51.0,29.97,NNE,24,6.0,13.0,92,0.00,,,0.00,0.000000,,2013-01-27 11:52:00,
2013-01-27 04:21:00,54.0,52.0,29.96,WNW,286,5.0,15.0,93,0.00,,,0.00,0.000000,,2013-01-27 12:21:00,
2013-01-27 04:32:00,54.0,52.0,29.96,WNW,286,5.0,15.0,93,0.00,,,0.00,0.000000,,2013-01-27 12:32:00,
2013-01-27 04:42:00,54.0,52.0,29.96,WNW,286,5.0,15.0,93,0.00,,,0.00,0.000000,,2013-01-27 12:42:00,
2013-01-27 04:52:00,54.0,52.0,29.96,WNW,286,5.0,15.0,93,0.00,,,0.00,0.000000,,2013-01-27 12:52:00,
2013-01-27 05:22:00,53.0,52.0,29.95,WNW,303,4.0,12.0,98,0.00,,,0.00,0.000000,,2013-01-27 13:22:00,
2013-01-27 05:32:00,53.0,52.0,29.95,WNW,303,4.0,12.0,98,0.00,,,0.00,0.000000,,2013-01-27 13:32:00,
2013-01-27 05:42:00,53.0,52.0,29.95,WNW,303,4.0,12.0,98,0.00,,,0.00,0.000000,,2013-01-27 13:42:00,
2013-01-27 05:52:00,53.0,52.0,29.95,WNW,303,4.0,12.0,98,0.00,,,0.00,0.000000,,2013-01-27 13:52:00,
2013-01-27 06:22:00,51.0,50.0,29.95,NNW,345,6.0,11.0,96,0.00,,,0.00,0.000000,,2013-01-27 14:22:00,
2013-01-27 06:32:00,51.0,50.0,29.95,NNW,345,6.0,11.0,96,0.00,,,0.00,0.000000,,2013-01-27 14:32:00,
2013-01-27 06:42:00,51.0,50.0,29.95,NNW,345,6.0,11.0,96,0.00,,,0.00,0.000000,,2013-01-27 14:42:00,
2013-01-27 06:52:00,51.0,50.0,29.95,NNW,345,6.0,11.0,96,0.00,,,0.00,0.000000,,2013-01-27 14:52:00,
2013-01-27 07:22:00,53.0,52.0,29.96,NNW,340,4.0,11.0,97,0.00,,,0.00,0.000000,,2013-01-27 15:22:00,
2013-01-27 07:32:00,53.0,52.0,29.96,NNW,340,4.0,11.0,97,0.00,,,0.00,0.000000,,2013-01-27 15:32:00,
2013-01-27 07:42:00,53.0,52.0,29.96,NNW,340,4.0,11.0,97,0.00,,,0.00,0.000000,,2013-01-27 15:42:00,
2013-01-27 07:52:00,53.0,52.0,29.96,NNW,340,4.0,11.0,97,0.00,,,0.00,0.000000,,2013-01-27 15:52:00,
2013-01-27 08:21:00,57.0,54.0,29.96,West,267,7.0,10.0,89,0.00,,,0.00,60.000000,,2013-01-27 16:21:00,
2013-01-27 08:32:00,57.0,54.0,29.96,West,267,7.0,10.0,89,0.00,,,0.00,60.000000,,2013-01-27 16:32:00,
2013-01-27 08:42:00,57.0,54.0,29.96,West,267,7.0,10.0,89,0.00,,,0.00,60.000000,,2013-01-27 16:42:00,
2013-01-27 08:52:00,57.0,54.0,29.96,West,267,7.0,10.0,89,0.00,,,0.00,60.000000,,2013-01-27 16:52:00,
2013-01-27 09:21:00,59.0,53.0,29.97,WSW,254,10.0,12.0,80,0.00,,,0.00,232.000000,,2013-01-27 17:21:00,
2013-01-27 09:32:00,59.0,53.0,29.97,WSW,254,10.0,12.0,80,0.00,,,0.00,232.000000,,2013-01-27 17:32:00,
2013-01-27 09:42:00,59.0,53.0,29.97,WSW,254,10.0,12.0,80,0.00,,,0.00,232.000000,,2013-01-27 17:42:00,
2013-01-27 09:52:00,59.0,53.0,29.97,WSW,254,10.0,12.0,80,0.00,,,0.00,232.000000,,2013-01-27 17:52:00,
2013-01-27 10:22:00,57.0,51.0,29.99,WSW,254,11.0,16.0,79,0.00,,,0.00,238.000000,,2013-01-27 18:22:00,
2013-01-27 10:32:00,57.0,51.0,29.99,WSW,254,11.0,16.0,79,0.00,,,0.00,238.000000,,2013-01-27 18:32:00,
2013-01-27 10:42:00,57.0,51.0,29.99,WSW,254,11.0,16.0,79,0.00,,,0.00,238.000000,,2013-01-27 18:42:00,
2013-01-27 10:51:00,57.0,51.0,29.99,WSW,254,11.0,16.0,79,0.00,,,0.00,238.000000,,2013-01-27 18:51:00,
2013-01-27 11:22:00,63.0,54.0,29.98,WSW,246,11.0,19.0,73,0.00,,,0.00,555.000000,,2013-01-27 19:22:00,
2013-01-27 11:32:00,63.0,54.0,29.98,WSW,246,11.0,19.0,73,0.00,,,0.00,555.000000,,2013-01-27 19:32:00,
2013-01-27 11:41:00,63.0,54.0,29.98,WSW,246,11.0,19.0,73,0.00,,,0.00,555.000000,,2013-01-27 19:41:00,
2013-01-27 11:51:00,63.0,54.0,29.98,WSW,246,11.0,19.0,73,0.00,,,0.00,555.000000,,2013-01-27 19:51:00,
2013-01-27 12:22:00,61.0,50.0,29.96,WSW,250,14.0,18.0,66,0.00,,,0.00,717.000000,,2013-01-27 20:22:00,
2013-01-27 12:32:00,61.0,50.0,29.96,WSW,250,14.0,18.0,66,0.00,,,0.00,717.000000,,2013-01-27 20:32:00,
2013-01-27 12:42:00,61.0,50.0,29.96,WSW,250,14.0,18.0,66,0.00,,,0.00,717.000000,,2013-01-27 20:42:00,
2013-01-27 12:52:00,61.0,50.0,29.96,WSW,250,14.0,18.0,66,0.00,,,0.00,717.000000,,2013-01-27 20:52:00,
2013-01-27 13:22:00,60.0,45.0,29.94,WSW,258,15.0,23.0,58,0.00,,,0.00,785.000000,,2013-01-27 21:22:00,
2013-01-27 13:32:00,60.0,45.0,29.94,WSW,258,15.0,23.0,58,0.00,,,0.00,785.000000,,2013-01-27 21:32:00,
2013-01-27 13:42:00,60.0,45.0,29.94,WSW,258,15.0,23.0,58,0.00,,,0.00,785.000000,,2013-01-27 21:42:00,
2013-01-27 13:52:00,60.0,45.0,29.94,WSW,258,15.0,23.0,58,0.00,,,0.00,785.000000,,2013-01-27 21:52:00,
2013-01-27 14:21:00,62.0,47.0,29.93,West,263,13.0,26.0,57,0.00,,,0.00,636.000000,,2013-01-27 22:21:00,
2013-01-27 14:32:00,62.0,47.0,29.93,West,263,13.0,26.0,57,0.00,,,0.00,636.000000,,2013-01-27 22:32:00,
2013-01-27 14:42:00,62.0,47.0,29.93,West,263,13.0,26.0,57,0.00,,,0.00,636.000000,,2013-01-27 22:42:00,
2013-01-27 14:51:00,62.0,47.0,29.93,West,263,13.0,26.0,57,0.00,,,0.00,636.000000,,2013-01-27 22:51:00,
2013-01-27 15:11:00,61.0,46.0,29.92,West,263,13.0,27.0,57,0.00,,,0.00,520.000000,,2013-01-27 23:11:00,
2013-01-27 15:21:00,61.0,46.0,29.92,West,263,13.0,27.0,57,0.00,,,0.00,520.000000,,2013-01-27 23:21:00,
2013-01-27 15:32:00,61.0,46.0,29.92,West,263,13.0,27.0,57,0.00,,,0.00,520.000000,,2013-01-27 23:32:00,
2013-01-27 15:41:00,61.0,46.0,29.92,West,263,13.0,27.0,57,0.00,,,0.00,520.000000,,2013-01-27 23:41:00,
2013-01-27 15:52:00,61.0,46.0,29.92,West,263,13.0,27.0,57,0.00,,,0.00,520.000000,,2013-01-27 23:52:00,
2013-01-27 16:21:00,59.0,44.0,29.92,West,270,14.0,27.0,57,0.00,,,0.00,359.000000,,2013-01-28 00:21:00,
2013-01-27 16:32:00,59.0,44.0,29.92,West,270,14.0,27.0,57,0.00,,,0.00,359.000000,,2013-01-28 00:32:00,
2013-01-27 16:41:00,59.0,44.0,29.92,West,270,14.0,27.0,57,0.00,,,0.00,359.000000,,2013-01-28 00:41:00,
2013-01-27 16:51:00,59.0,44.0,29.92,West,270,14.0,27.0,57,0.00,,,0.00,359.000000,,2013-01-28 00:51:00,
2013-01-27 17:21:00,58.0,45.0,29.91,West,270,12.0,26.0,61,0.00,,,0.00,166.000000,,2013-01-28 01:21:00,
2013-01-27 17:32:00,58.0,45.0,29.91,West,270,12.0,26.0,61,0.00,,,0.00,166.000000,,2013-01-28 01:32:00,
2013-01-27 17:42:00,58.0,45.0,29.91,West,270,12.0,26.0,61,0.00,,,0.00,166.000000,,2013-01-28 01:42:00,
2013-01-27 17:51:00,58.0,45.0,29.91,West,270,12.0,26.0,61,0.00,,,0.00,166.000000,,2013-01-28 01:51:00,
2013-01-27 18:21:00,55.0,40.0,29.93,NW,323,4.0,24.0,56,0.00,,,0.00,16.000000,,2013-01-28 02:21:00,
2013-01-27 18:32:00,55.0,40.0,29.93,NW,323,4.0,24.0,56,0.00,,,0.00,16.000000,,2013-01-28 02:32:00,
2013-01-27 18:41:00,55.0,40.0,29.93,NW,323,4.0,24.0,56,0.00,,,0.00,16.000000,,2013-01-28 02:41:00,
2013-01-27 18:52:00,55.0,40.0,29.93,NW,323,4.0,24.0,56,0.00,,,0.00,16.000000,,2013-01-28 02:52:00,
2013-01-27 19:21:00,51.0,39.0,29.94,NE,35,3.0,23.0,63,0.00,,,0.00,0.000000,,2013-01-28 03:21:00,
2013-01-27 19:32:00,51.0,39.0,29.94,NE,35,3.0,23.0,63,0.00,,,0.00,0.000000,,2013-01-28 03:32:00,
2013-01-27 19:41:00,51.0,39.0,29.94,NE,35,3.0,23.0,63,0.00,,,0.00,0.000000,,2013-01-28 03:41:00,
2013-01-27 19:52:00,51.0,39.0,29.94,NE,35,3.0,23.0,63,0.00,,,0.00,0.000000,,2013-01-28 03:52:00,
2013-01-27 20:21:00,50.0,33.0,29.96,WNW,301,3.0,13.0,52,0.00,,,0.00,0.000000,,2013-01-28 04:21:00,
2013-01-27 20:32:00,50.0,33.0,29.96,WNW,301,3.0,13.0,52,0.00,,,0.00,0.000000,,2013-01-28 04:32:00,
2013-01-27 20:41:00,50.0,33.0,29.96,WNW,301,3.0,13.0,52,0.00,,,0.00,0.000000,,2013-01-28 04:41:00,
2013-01-27 20:52:00,50.0,33.0,29.96,WNW,301,3.0,13.0,52,0.00,,,0.00,0.000000,,2013-01-28 04:52:00,
2013-01-27 21:21:00,50.0,31.0,29.98,WNW,293,6.0,11.0,47,0.00,,,0.00,0.000000,,2013-01-28 05:21:00,
2013-01-27 21:31:00,50.0,31.0,29.98,WNW,293,6.0,11.0,47,0.00,,,0.00,0.000000,,2013-01-28 05:31:00,
2013-01-27 21:41:00,50.0,31.0,29.98,WNW,293,6.0,11.0,47,0.00,,,0.00,0.000000,,2013-01-28 05:41:00,
2013-01-27 21:52:00,50.0,31.0,29.98,WNW,293,6.0,11.0,47,0.00,,,0.00,0.000000,,2013-01-28 05:52:00,
2013-01-27 22:21:00,49.0,26.0,29.99,North,356,6.0,10.0,40,0.00,,,0.00,0.000000,,2013-01-28 06:21:00,
2013-01-27 23:21:00,46.0,27.0,30.01,North,4,9.0,9.0,48,0.00,,,0.00,0.000000,,2013-01-28 07:21:00,
2013-01-27 23:31:00,46.0,27.0,30.01,North,4,9.0,9.0,48,0.00,,,0.00,0.000000,,2013-01-28 07:31:00,
2013-01-27 23:41:00,46.0,27.0,30.01,North,4,9.0,9.0,48,0.00,,,0.00,0.000000,,2013-01-28 07:41:00,
2013-01-27 23:51:00,46.0,27.0,30.01,North,4,9.0,9.0,48,0.00,,,0.00,0.000000,,2013-01-28 07:51:00,